Raton, NM

12:14 AM MDT on August 20, 2017 (GMT -0600)
Raton Municipal-Crews

Weather History for KRTN - January, 2013

Change the Weather History Date:

Saturday, January 19, 2013

  Actual Average (KTAD) Record (KTAD)
Temperature  
Mean Temperature 34 °F -  
Max Temperature 51 °F 46 °F 75 °F (1986)
Min Temperature 16 °F 20 °F -14 °F (1963)
Degree Days  
Heating Degree Days 32    
Moisture  
Dew Point 13 °F    
Average Humidity 48    
Maximum Humidity 69    
Minimum Humidity 21    
Precipitation  
Precipitation 0.00 in - - ()
Sea Level Pressure  
Sea Level Pressure 30.26 in    
Wind  
Wind Speed 8 mph (NE)    
Max Wind Speed 14 mph    
Max Gust Speed -    
Visibility 10 miles    
Events      
Averages and records for this station are not official NWS values.
T = Trace of Precipitation, MM = Missing Value Source: NWS Daily Summary

Daily Weather History Graph

Daily Weather History Graph

Search for Another Location

Airport or City:

Trip Planner

Search our weather history database for the weather conditions in past years. The results will help you decide how hot, cold, wet, or windy it might be!

Date:

Astronomy

Jan. 19, 2013 Rise Set
Actual Time 7:08 AM MST 5:10 PM MST
Civil Twilight 6:40 AM MST 5:38 PM MST
Nautical Twilight 6:08 AM MST 6:09 PM MST
Astronomical Twilight 5:37 AM MST 6:40 PM MST
Moon 11:35 AM MST (1/19) 12:47 AM MST (1/19)
Length of Visible Light 10h 57m
Length of Day
10h 01m
First Quarter, 58% of the Moon is Illuminated
Jan 19
First Quarter
Jan 26
Full
Feb 3
Last Quarter
Feb 10
New
Feb 17
First Quarter

Hourly Weather History & Observations

Time (MST) Temp. Windchill Dew Point Humidity Pressure Visibility Wind Dir Wind Speed Gust Speed Precip Events Conditions
12:53 AM 19.9 °F 11.1 °F 10.9 °F 68% 30.17 in 10.0 mi NNE 6.9 mph - N/A   Clear
1:53 AM 19.0 °F 7.5 °F 8.1 °F 62% 30.17 in 10.0 mi NE 10.4 mph - N/A   Clear
2:53 AM 16.0 °F 6.3 °F 7.0 °F 68% 30.17 in 10.0 mi ENE 6.9 mph - N/A   Clear
3:53 AM 16.0 °F 4.4 °F 7.0 °F 68% 30.16 in 10.0 mi ENE 9.2 mph - N/A   Clear
4:53 AM 16.0 °F 5.3 °F 6.1 °F 65% 30.19 in 10.0 mi NE 8.1 mph - N/A   Clear
5:53 AM 16.0 °F 7.4 °F 5.0 °F 62% 30.25 in 10.0 mi NNE 5.8 mph - N/A   Clear
6:53 AM 18.0 °F 6.1 °F 5.0 °F 57% 30.29 in 10.0 mi ENE 10.4 mph - N/A   Clear
7:53 AM 21.9 °F 11.7 °F 6.1 °F 51% 30.30 in 10.0 mi ENE 9.2 mph - N/A   Clear
8:53 AM 32.0 °F 24.8 °F 10.9 °F 42% 30.30 in 10.0 mi NE 8.1 mph - N/A   Clear
9:53 AM 37.9 °F 32.1 °F 12.9 °F 36% 30.30 in 10.0 mi East 8.1 mph - N/A   Clear
10:53 AM 48.9 °F - 17.1 °F 28% 30.27 in 10.0 mi NE 13.8 mph - N/A   Clear
11:53 AM 50.0 °F - 15.1 °F 25% 30.23 in 10.0 mi NE 12.7 mph - N/A   Clear
12:53 PM 50.0 °F - 16.0 °F 26% 30.22 in 10.0 mi East 10.4 mph - N/A   Clear
1:53 PM 51.1 °F - 17.1 °F 26% 30.23 in 10.0 mi ESE 9.2 mph - N/A   Clear
2:53 PM 51.1 °F - 12.9 °F 22% 30.24 in 10.0 mi ESE 6.9 mph - N/A   Clear
3:53 PM 51.1 °F - 12.0 °F 21% 30.25 in 10.0 mi WSW 3.5 mph - N/A   Clear
4:53 PM 45.0 °F 42.6 °F 19.9 °F 37% 30.28 in 10.0 mi West 4.6 mph - N/A   Clear
5:53 PM 39.9 °F - 17.1 °F 40% 30.32 in 10.0 mi Calm Calm - N/A   Clear
6:53 PM 33.1 °F 30.0 °F 19.0 °F 56% 30.36 in 10.0 mi WNW 3.5 mph - N/A   Clear
7:53 PM 37.9 °F 35.5 °F 15.1 °F 39% 30.33 in 10.0 mi WSW 3.5 mph - N/A   Clear
8:53 PM 32.0 °F 28.7 °F 17.1 °F 54% 30.32 in 10.0 mi ENE 3.5 mph - N/A   Clear
9:53 PM 30.0 °F 26.5 °F 17.1 °F 59% 30.30 in 10.0 mi NE 3.5 mph - N/A   Clear
10:53 PM 27.0 °F 23.0 °F 16.0 °F 63% 30.25 in 10.0 mi NW 3.5 mph - N/A   Clear
11:53 PM 25.0 °F 16.3 °F 16.0 °F 69% 30.24 in 10.0 mi NNW 8.1 mph - N/A   Clear